Chatham, MA

1:30 PM EDT on July 27, 2017 (GMT -0400)
Chatham Municipal

Weather History for KCQX - November, 2011

Change the Weather History Date:

Monday, November 28, 2011

  Actual Average Record
Temperature  
Mean Temperature 54 °F -  
Max Temperature 57 °F 46 °F 62 °F (1973)
Min Temperature 51 °F 34 °F 23 °F (1982)
Degree Days  
Heating Degree Days 11    
Growing Degree Days 4 (Base 50)    
Moisture  
Dew Point 50 °F    
Average Humidity 89    
Maximum Humidity 97    
Minimum Humidity 77    
Precipitation  
Precipitation 0.01 in - - ()
Sea Level Pressure  
Sea Level Pressure 30.17 in    
Wind  
Wind Speed 7 mph (SW)    
Max Wind Speed 10 mph    
Max Gust Speed 21 mph    
Visibility 10 miles    
Events      
Averages and records for this station are not official NWS values.
T = Trace of Precipitation, MM = Missing Value Source: NWS Daily Summary

Daily Weather History Graph

Daily Weather History Graph

Search for Another Location

Airport or City:

Trip Planner

Search our weather history database for the weather conditions in past years. The results will help you decide how hot, cold, wet, or windy it might be!

Date:

Astronomy

Nov. 28, 2011 Rise Set
Actual Time 6:43 AM EST 4:11 PM EST
Civil Twilight 6:13 AM EST 4:42 PM EST
Nautical Twilight 5:38 AM EST 5:16 PM EST
Astronomical Twilight 5:05 AM EST 5:49 PM EST
Moon 9:50 AM EST (11/28) 7:55 PM EST (11/28)
Length of Visible Light 10h 29m
Length of Day
9h 27m
Waxing Crescent, 15% of the Moon is Illuminated
Nov 28
Waxing Crescent
Dec 2
First Quarter
Dec 10
Full
Dec 17
Last Quarter
Dec 24
New

Hourly Weather History & Observations

Time (EST) Temp. Dew Point Humidity Pressure Visibility Wind Dir Wind Speed Gust Speed Precip Events Conditions
12:52 AM 52.0 °F 50.0 °F 93% 30.17 in 10.0 mi SW 4.6 mph - N/A   Clear
1:52 AM 52.0 °F 51.1 °F 97% 30.17 in 10.0 mi SW 6.9 mph - N/A   Clear
2:52 AM 52.0 °F 51.1 °F 97% 30.17 in 10.0 mi SW 9.2 mph - 0.01 in   Clear
3:52 AM 52.0 °F 50.0 °F 93% 30.16 in 10.0 mi Variable 5.8 mph - N/A   Clear
4:52 AM 52.0 °F 50.0 °F 93% 30.15 in 10.0 mi SW 6.9 mph - N/A   Clear
5:52 AM 52.0 °F 50.0 °F 93% 30.16 in 10.0 mi SW 6.9 mph - N/A   Clear
6:52 AM 53.1 °F 50.0 °F 89% 30.17 in 10.0 mi SW 10.4 mph 19.6 mph N/A   Clear
7:52 AM 53.1 °F 51.1 °F 93% 30.18 in 10.0 mi WSW 9.2 mph - N/A   Clear
8:52 AM 54.0 °F 51.1 °F 90% 30.19 in 10.0 mi WSW 10.4 mph 19.6 mph N/A   Clear
9:52 AM 55.9 °F 51.1 °F 84% 30.19 in 10.0 mi WSW 9.2 mph 20.7 mph N/A   Partly Cloudy
10:52 AM 55.0 °F 50.0 °F 83% 30.18 in 10.0 mi SW 10.4 mph 19.6 mph N/A   Clear
11:52 AM 57.0 °F 50.0 °F 77% 30.17 in 10.0 mi WSW 9.2 mph 20.7 mph N/A   Clear
12:52 PM 57.0 °F 50.0 °F 77% 30.16 in 10.0 mi SW 6.9 mph - N/A   Clear
1:52 PM 55.9 °F 50.0 °F 80% 30.15 in 10.0 mi SW 8.1 mph 19.6 mph N/A   Clear
2:52 PM 55.0 °F 50.0 °F 83% 30.15 in 10.0 mi Variable 5.8 mph - N/A   Clear
3:52 PM 55.9 °F 51.1 °F 84% 30.16 in 10.0 mi WSW 9.2 mph - N/A   Clear
4:52 PM 55.0 °F 51.1 °F 86% 30.15 in 10.0 mi SW 10.4 mph 16.1 mph N/A   Clear
5:52 PM 53.1 °F 50.0 °F 89% 30.14 in 10.0 mi SW 6.9 mph - N/A   Clear
6:52 PM 53.1 °F 50.0 °F 89% 30.16 in 10.0 mi WSW 5.8 mph - N/A   Clear
7:52 PM 53.1 °F 51.1 °F 93% 30.17 in 10.0 mi SW 5.8 mph - N/A   Clear
8:52 PM 52.0 °F 50.0 °F 93% 30.17 in 10.0 mi SW 4.6 mph - N/A   Clear
9:52 PM 51.1 °F 50.0 °F 96% 30.17 in 10.0 mi SW 4.6 mph - N/A   Clear
10:52 PM 53.1 °F 51.1 °F 93% 30.17 in 10.0 mi SW 5.8 mph - N/A   Clear
11:52 PM 51.1 °F 50.0 °F 96% 30.17 in 10.0 mi SW 5.8 mph - N/A   Clear